Time,TemperatureF,DewpointF,PressureIn,WindDirection,WindDirectionDegrees,WindSpeedMPH,WindSpeedGustMPH,Humidity,HourlyPrecipIn,Conditions,Clouds,dailyrainin,SoftwareType,DateUTC
2013-10-08 00:37:00,56.6,46.1,30.05,North,0,0.0,0.0,68,0.00,,,0.00,WUHU216HW,2013-10-08 05:37:00,
2013-10-08 00:54:00,56.3,45.8,30.05,North,0,0.0,0.0,68,0.00,,,0.00,WUHU216HW,2013-10-08 05:54:00,
2013-10-08 01:11:00,55.7,45.3,30.04,North,0,0.0,0.0,69,0.00,,,0.00,WUHU216HW,2013-10-08 06:11:00,
2013-10-08 02:10:00,54.3,45.8,30.04,North,0,0.0,0.0,73,0.00,,,0.00,WUHU216HW,2013-10-08 07:10:00,
2013-10-08 02:15:00,54.1,45.6,30.04,North,0,0.0,0.0,73,0.00,,,0.00,WUHU216HW,2013-10-08 07:15:00,
2013-10-08 02:20:00,54.1,45.6,30.04,North,0,0.0,0.0,73,0.00,,,0.00,WUHU216HW,2013-10-08 07:20:00,
2013-10-08 02:25:00,54.1,45.6,30.04,North,0,0.0,0.0,73,0.00,,,0.00,WUHU216HW,2013-10-08 07:25:00,
2013-10-08 02:30:00,53.9,45.4,30.04,North,0,0.0,0.0,73,0.00,,,0.00,WUHU216HW,2013-10-08 07:30:00,
2013-10-08 02:35:00,53.7,45.3,30.04,North,0,0.0,0.0,73,0.00,,,0.00,WUHU216HW,2013-10-08 07:35:00,
2013-10-08 02:40:00,53.7,45.3,30.04,North,0,0.0,0.0,73,0.00,,,0.00,WUHU216HW,2013-10-08 07:40:00,
2013-10-08 02:56:00,53.2,45.1,30.04,North,0,0.0,0.0,74,0.00,,,0.00,WUHU216HW,2013-10-08 07:56:00,
2013-10-08 03:19:00,52.7,45.0,30.03,North,0,0.0,0.0,75,0.00,,,0.00,WUHU216HW,2013-10-08 08:19:00,
2013-10-08 03:43:00,52.3,44.6,30.03,North,0,0.0,0.0,76,0.00,,,0.00,WUHU216HW,2013-10-08 08:43:00,
2013-10-08 04:02:00,53.2,45.1,30.03,North,0,0.0,0.0,74,0.00,,,0.00,WUHU216HW,2013-10-08 09:02:00,
2013-10-08 04:37:00,52.1,44.4,30.02,North,0,0.0,0.0,75,0.00,,,0.00,WUHU216HW,2013-10-08 09:37:00,
2013-10-08 04:42:00,51.4,43.7,30.03,North,0,0.0,0.0,75,0.00,,,0.00,WUHU216HW,2013-10-08 09:42:00,
2013-10-08 04:46:00,51.0,43.4,30.03,North,0,0.0,0.0,75,0.00,,,0.00,WUHU216HW,2013-10-08 09:46:00,
2013-10-08 04:47:00,51.4,43.7,30.03,North,0,0.0,0.0,75,0.00,,,0.00,WUHU216HW,2013-10-08 09:47:00,
2013-10-08 04:52:00,51.0,43.4,30.03,North,0,0.0,0.0,75,0.00,,,0.00,WUHU216HW,2013-10-08 09:52:00,
2013-10-08 05:07:00,50.3,43.3,30.03,North,0,0.0,0.0,77,0.00,,,0.00,WUHU216HW,2013-10-08 10:07:00,
2013-10-08 05:14:00,50.3,43.3,30.03,North,0,0.0,0.0,77,0.00,,,0.00,WUHU216HW,2013-10-08 10:14:00,
2013-10-08 05:42:00,49.6,43.3,30.03,North,0,0.0,0.0,79,0.00,,,0.00,WUHU216HW,2013-10-08 10:42:00,
2013-10-08 07:18:00,50.5,44.6,30.05,North,0,0.0,0.0,80,0.00,,,0.00,WUHU216HW,2013-10-08 12:18:00,
2013-10-08 07:23:00,50.3,44.4,30.05,North,0,0.0,0.0,80,0.00,,,0.00,WUHU216HW,2013-10-08 12:23:00,
2013-10-08 07:28:00,50.3,44.4,30.05,North,0,0.0,0.0,80,0.00,,,0.00,WUHU216HW,2013-10-08 12:28:00,
2013-10-08 07:44:00,49.8,43.8,30.05,North,0,0.0,0.0,80,0.00,,,0.00,WUHU216HW,2013-10-08 12:44:00,
2013-10-08 08:07:00,49.8,44.1,30.05,North,0,0.0,0.0,82,0.00,,,0.00,WUHU216HW,2013-10-08 13:07:00,
2013-10-08 08:12:00,50.1,44.8,30.05,North,0,0.0,0.0,82,0.00,,,0.00,WUHU216HW,2013-10-08 13:12:00,
2013-10-08 08:17:00,50.5,45.5,30.05,North,0,0.0,0.0,83,0.00,,,0.00,WUHU216HW,2013-10-08 13:17:00,
2013-10-08 08:22:00,50.5,45.5,30.05,North,0,0.0,0.0,83,0.00,,,0.00,WUHU216HW,2013-10-08 13:22:00,
2013-10-08 09:27:00,61.1,51.7,30.06,North,0,0.0,0.0,71,0.00,,,0.00,WUHU216HW,2013-10-08 14:27:00,
2013-10-08 09:32:00,61.1,51.7,30.06,North,0,0.0,0.0,71,0.00,,,0.00,WUHU216HW,2013-10-08 14:32:00,
2013-10-08 09:44:00,63.1,52.4,30.06,North,0,0.0,0.0,68,0.00,,,0.00,WUHU216HW,2013-10-08 14:44:00,
2013-10-08 10:05:00,68.0,50.6,30.05,North,0,0.0,0.0,54,0.00,,,0.00,WUHU216HW,2013-10-08 15:05:00,
2013-10-08 10:41:00,74.8,50.7,30.05,North,0,0.0,0.0,43,0.00,,,0.00,WUHU216HW,2013-10-08 15:41:00,
2013-10-08 10:46:00,74.8,50.7,30.05,North,0,0.0,0.0,43,0.00,,,0.00,WUHU216HW,2013-10-08 15:46:00,
2013-10-08 10:56:00,76.2,49.4,30.05,North,0,0.0,0.0,37,0.00,,,0.00,WUHU216HW,2013-10-08 15:56:00,
2013-10-08 11:01:00,76.6,49.8,30.05,North,0,0.0,0.0,39,0.00,,,0.00,WUHU216HW,2013-10-08 16:01:00,
2013-10-08 11:05:00,77.9,49.4,30.05,North,0,0.0,0.0,37,0.00,,,0.00,WUHU216HW,2013-10-08 16:05:00,
2013-10-08 11:06:00,77.1,49.5,30.05,North,0,0.0,0.0,38,0.00,,,0.00,WUHU216HW,2013-10-08 16:06:00,
2013-10-08 11:11:00,77.9,49.4,30.05,North,0,0.0,0.0,37,0.00,,,0.00,WUHU216HW,2013-10-08 16:11:00,
2013-10-08 13:07:00,84.9,50.1,30.02,North,0,0.0,0.0,30,0.00,,,0.00,WUHU216HW,2013-10-08 18:07:00,
2013-10-08 13:19:00,86.1,50.1,30.02,North,0,0.0,0.0,29,0.00,,,0.00,WUHU216HW,2013-10-08 18:19:00,
2013-10-08 13:24:00,86.3,52.1,30.01,North,0,0.0,0.0,31,0.00,,,0.00,WUHU216HW,2013-10-08 18:24:00,
2013-10-08 13:29:00,86.3,52.1,30.01,North,0,0.0,0.0,31,0.00,,,0.00,WUHU216HW,2013-10-08 18:29:00,
2013-10-08 14:03:00,87.0,53.5,30.00,North,0,0.0,0.0,32,0.00,,,0.00,WUHU216HW,2013-10-08 19:03:00,
2013-10-08 14:23:00,88.1,51.7,29.99,North,0,0.0,0.0,29,0.00,,,0.00,WUHU216HW,2013-10-08 19:23:00,
2013-10-08 14:28:00,87.9,53.4,29.98,North,0,0.0,0.0,31,0.00,,,0.00,WUHU216HW,2013-10-08 19:28:00,
2013-10-08 14:33:00,87.9,53.4,29.98,North,0,0.0,0.0,31,0.00,,,0.00,WUHU216HW,2013-10-08 19:33:00,
2013-10-08 14:41:00,87.4,53.0,29.98,North,0,0.0,0.0,31,0.00,,,0.00,WUHU216HW,2013-10-08 19:41:00,
2013-10-08 15:09:00,87.4,51.1,29.97,North,0,0.0,0.0,29,0.00,,,0.00,WUHU216HW,2013-10-08 20:09:00,
2013-10-08 16:50:00,85.2,50.4,29.96,North,0,0.0,0.0,30,0.00,,,0.00,WUHU216HW,2013-10-08 21:50:00,
2013-10-08 16:55:00,85.2,50.4,29.96,North,0,0.0,0.0,30,0.00,,,0.00,WUHU216HW,2013-10-08 21:55:00,
2013-10-08 17:49:00,80.9,50.5,29.95,North,0,0.0,0.0,36,0.00,,,0.00,WUHU216HW,2013-10-08 22:49:00,
2013-10-08 17:54:00,80.9,50.5,29.95,North,0,0.0,0.0,36,0.00,,,0.00,WUHU216HW,2013-10-08 22:54:00,
2013-10-08 18:46:00,75.7,50.3,29.95,North,0,0.0,0.0,41,0.00,,,0.00,WUHU216HW,2013-10-08 23:46:00,
2013-10-08 18:51:00,75.0,50.3,29.95,North,0,0.0,0.0,42,0.00,,,0.00,WUHU216HW,2013-10-08 23:51:00,
2013-10-08 18:56:00,75.0,50.3,29.95,North,0,0.0,0.0,42,0.00,,,0.00,WUHU216HW,2013-10-08 23:56:00,
2013-10-08 19:06:00,73.5,50.2,29.95,North,0,0.0,0.0,44,0.00,,,0.00,WUHU216HW,2013-10-09 00:06:00,
2013-10-08 19:23:00,71.7,49.7,29.95,North,0,0.0,0.0,46,0.00,,,0.00,WUHU216HW,2013-10-09 00:23:00,
2013-10-08 20:12:00,67.2,49.5,29.96,North,0,0.0,0.0,53,0.00,,,0.00,WUHU216HW,2013-10-09 01:12:00,
2013-10-08 21:44:00,64.9,49.7,29.97,North,0,0.0,0.0,58,0.00,,,0.00,WUHU216HW,2013-10-09 02:44:00,